Regional Weather Roundup
Issued by NWS

Home | Current Version | Previous Version | Text Only | Print | Product List | Glossary Off
Versions: 1 2 3 4 5 6 7 8 9 10 11 12 13 14 15 16 17 18 19 20 21 22 23 24 25 26 27 28 29 30 31 32 33 34 35 36 37 38 39 40 41 42 43 44 45 46 47 48 49 50

047
ASUS43 KLSX 121257
RWRMO

WEATHER SUMMARY FOR MISSOURI
NATIONAL WEATHER SERVICE SPRINGFIELD MO
700 AM CST TUE DEC 12 2017

NOTE: "FAIR" INDICATES FEW OR NO CLOUDS BELOW 12,000 FEET WITH NO
       SIGNIFICANT WEATHER AND/OR OBSTRUCTIONS TO VISIBILITY.
       CURRENT SKY AND/OR WEATHER CONDITIONS ARE NOT AVAILABLE FOR
       CHILLICOTHE AND FARMINGTON.

MOZ001>031-035>038-043-044-053-054-121400-
...NORTHERN AND WESTERN MISSOURI...

CITY           SKY/WX    TMP DP  RH WIND       PRES   REMARKS
KANSAS CTY INT CLEAR     19  14  81 NW8       30.33R WCI   9
LEE`S SUMMIT   CLEAR     22  14  71 N10       30.32S WCI  11
ST JOSEPH      CLOUDY    18  13  80 N9        30.36R WCI   7
CHILLICOTHE      N/A     19  11  70 NW8       30.33R WCI   9

$$
MOZ066>068-077>081-088>096-101>105-121400-
...SOUTHWEST MISSOURI...

CITY           SKY/WX    TMP DP  RH WIND       PRES   REMARKS
SPRINGFIELD    CLEAR     26  19  74 NW13      30.27R WCI  15
JOPLIN         CLEAR     24  19  81 N8        30.33S WCI  15
BRANSON        PTCLDY    30  23  74 NW12G18   30.28R WCI  21

$$
MOZ032>034-039>042-045>050-055>058-069>072-121400-
...CENTRAL MISSOURI...

CITY           SKY/WX    TMP DP  RH WIND       PRES   REMARKS
COLUMBIA       NOT AVBL
JEFFERSON CITY CLEAR     25  17  72 NW7       30.30R WCI  17
ROLLA          PTCLDY    25  18  74 NW14G24   30.24R WCI  13
SEDALIA        CLEAR     22  16  78 NW14      30.32R WCI   9
WARRENSBURG    CLEAR     21  14  73 NW5       30.33S WCI  15

$$
MOZ051-052-059>065-121400-
...EAST CENTRAL MISSOURI...

CITY           SKY/WX    TMP DP  RH WIND       PRES   REMARKS
ST LOUIS INTL  PTCLDY    29  19  66 NW13G25   30.20R WCI  19

$$
MOZ072>076-082>087-097>100-106>115-121400-
...SOUTH CENTRAL AND SOUTHEAST MISSOURI...

CITY           SKY/WX    TMP DP  RH WIND       PRES   REMARKS
CAPE GIRARDEAU MOCLDY    38  24  57 N14G24    30.15R WCI  30
POPLAR BLUFF   CLEAR     38  24  57 NW15G26   30.17R WCI  29
WEST PLAINS    FLURRIES  28  20  71 NW17G25   30.22R WCI  16

$$



USA.gov is the U.S. government's official web portal to all federal, state and local government web resources and services.